Weather History for KFCM - March, 2014

Change the Weather History Date:

Thursday, March 13, 2014

  Actual Average Record
Temperature  
Mean Temperature 34 °F -  
Max Temperature 48 °F 34 °F 69 °F (1997)
Min Temperature 19 °F 19 °F 9 °F (2009)
Degree Days  
Heating Degree Days 32    
Moisture  
Dew Point 28 °F    
Average Humidity 73    
Maximum Humidity 89    
Minimum Humidity 58    
Precipitation  
Precipitation 0.00 in - - ()
Sea Level Pressure  
Sea Level Pressure 29.78 in    
Wind  
Wind Speed 7 mph (SSW)    
Max Wind Speed 13 mph    
Max Gust Speed -    
Visibility 10 miles    
Events      
Averages and records for this station are not official NWS values.
T = Trace of Precipitation, MM = Missing Value Source: NWS Daily Summary

Daily Weather History Graph

Daily Weather History Graph

Search for Another Location

Airport or City:

Trip Planner

Search our weather history database for the weather conditions in past years. The results will help you decide how hot, cold, wet, or windy it might be!

Date:

Astronomy

Mar. 13, 2014 Rise Set
Actual Time 7:29 AM CDT 7:17 PM CDT
Civil Twilight 7:00 AM CDT 7:46 PM CDT
Nautical Twilight 6:26 AM CDT 8:20 PM CDT
Astronomical Twilight 5:52 AM CDT 8:55 PM CDT
Moon 4:38 PM CDT (3/13) 5:43 AM CDT (3/13)
Length of Visible Light 12h 45m
Length of Day
11h 47m
Waxing Gibbous, 91% of the Moon is Illuminated
Mar 13
Waxing Gibbous
Mar 16
Full
Mar 23
Last Quarter
Mar 30
New
Apr 7
First Quarter

Hourly Weather History & Observations

Time (CDT) Temp. Windchill Dew Point Humidity Pressure Visibility Wind Dir Wind Speed Gust Speed Precip Events Conditions
12:53 AM 19.9 °F - 14.0 °F 78% 30.03 in 10.0 mi Calm Calm - N/A   Overcast
1:53 AM 21.9 °F 15.7 °F 15.1 °F 75% 30.01 in 10.0 mi SSW 4.6 mph - N/A   Overcast
2:53 AM 25.0 °F 15.5 °F 17.1 °F 72% 29.99 in 10.0 mi South 9.2 mph - N/A   Overcast
3:06 AM 24.8 °F 14.0 °F 17.6 °F 74% 29.94 in 10.0 mi South 11.5 mph - N/A   Overcast
3:53 AM 26.1 °F 16.8 °F 19.0 °F 75% 29.96 in 10.0 mi South 9.2 mph - N/A   Overcast
4:53 AM 27.0 °F 18.0 °F 21.0 °F 78% 29.92 in 10.0 mi South 9.2 mph - N/A   Overcast
5:53 AM 26.1 °F 17.6 °F 21.0 °F 81% 29.91 in 10.0 mi South 8.1 mph - N/A   Clear
6:53 AM 27.0 °F 18.7 °F 23.0 °F 85% 29.88 in 10.0 mi South 8.1 mph - N/A   Clear
7:53 AM 27.0 °F 18.7 °F 24.1 °F 89% 29.87 in 10.0 mi SSW 8.1 mph - N/A   Clear
8:53 AM 28.9 °F 21.9 °F 25.0 °F 85% 29.85 in 10.0 mi SSW 6.9 mph - N/A   Clear
9:53 AM 33.1 °F 26.9 °F 27.0 °F 78% 29.84 in 10.0 mi SW 6.9 mph - N/A   Clear
10:53 AM 37.0 °F 30.4 °F 28.9 °F 73% 29.82 in 10.0 mi SW 9.2 mph - N/A   Clear
11:53 AM 39.9 °F 33.9 °F 30.0 °F 68% 29.80 in 10.0 mi SW 9.2 mph - N/A   Clear
12:53 PM 42.1 °F 36.6 °F 30.9 °F 65% 29.78 in 10.0 mi SSW 9.2 mph - N/A   Clear
1:53 PM 44.1 °F 38.1 °F 32.0 °F 63% 29.75 in 10.0 mi SSW 11.5 mph - N/A   Clear
2:53 PM 46.0 °F 41.0 °F 33.1 °F 61% 29.72 in 10.0 mi South 10.4 mph - N/A   Clear
3:53 PM 46.0 °F 40.2 °F 33.1 °F 61% 29.70 in 10.0 mi South 12.7 mph - N/A   Clear
4:53 PM 48.0 °F - 34.0 °F 58% 29.68 in 10.0 mi SSW 12.7 mph - N/A   Clear
5:53 PM 48.0 °F - 36.0 °F 63% 29.65 in 10.0 mi South 12.7 mph - N/A   Clear
6:53 PM 46.0 °F 41.0 °F 36.0 °F 68% 29.62 in 10.0 mi SSW 10.4 mph - N/A   Clear
7:53 PM 44.1 °F 39.0 °F 36.0 °F 73% 29.61 in 10.0 mi SSW 9.2 mph - N/A   Clear
8:53 PM 44.1 °F 38.1 °F 36.0 °F 73% 29.59 in 10.0 mi SSW 11.5 mph - N/A   Clear
9:53 PM 43.0 °F 40.3 °F 36.0 °F 76% 29.57 in 10.0 mi SW 4.6 mph - N/A   Clear
10:53 PM 44.1 °F 39.0 °F 36.0 °F 73% 29.55 in 10.0 mi SW 9.2 mph - N/A   Clear
11:53 PM 41.0 °F 36.4 °F 35.1 °F 79% 29.53 in 10.0 mi SW 6.9 mph - N/A   Clear